www.pogodaiklimat.ru

Погода и климат >> Архив погоды >> Чили >> Пудауэль


ПОГОДА в Пудауэле

  • Прогноз погоды в Пудауэле
  • Монитор погоды в Пудауэле

АРХИВ ПОГОДЫ в Пудауэле

Время (UTC), дата Ветер
(напр.,м/с)
 
Видим.   Явления Облачность Т
(С)
Тd
(С)
f
(%)
Тe
(С)
Тes
(С)
Комфортность P
(гПа)
Po
(гПа)
Тmin
(С)
Tmax
(С)
R
(мм)
R24
(мм)
S
(см)
09 14.04 СЗ 2 3000 м дымка ясно +4.9 +4.9 100 +3 +3 1020.4 963.0
12 14.04 штиль 0 200 м туман 9/0
[]
+5.1 +5.1 100 +4 +4 1021.2 963.7 +3.3
15 14.04 0 3000 м мгла {туман} 4/0
[Ci fib]
+13.9 +9.4 74 1018.5 962.9
18 14.04 Ю 5 5000 м мгла 8/0
[Ac trans Ci]
+19.3 +6.9 44 +20 +24 1015.6 961.2
21 14.04 Ю 6 10 км 9/0
[Ac trans Cs]
+20.0 +7.8 45 +21 +21 комфорт 1015.5 961.2
00 15.04 ЮВ 3 10 км 9/0
[Ac trans Ci]
+17.3 +8.3 55 +17 +17 1016.7 961.8 +21.3
03 15.04 Ю 2 10 км 8/0
[Ac trans Cs]
+14.5 +7.1 61 +15 +15 1017.7 962.3
06 15.04 штиль 0 10 км 4/0
[Ci]
+11.2 +6.4 72 +11 +11 1018.8 962.7
09 15.04 0 10 км ясно +9.7 +6.4 80 1018.6 962.2
12 15.04 штиль 0 5000 м дым ясно +7.5 +4.7 82 +7 +7 1019.4 962.5 +5.4
15 15.04 0 5000 м дым ясно +17.7 +7.8 52 1016.6 961.8
18 15.04 Ю 2 8000 м мгла ясно +26.4 +3.5 23 +25 +35 комфорт 1012.5 959.4
21 15.04 Ю 6 10 км ясно +28.1 +2.6 19 +26 +27 жарко 1011.4 958.7
00 16.04 ЮВ 1 10 км ясно +20.8 +2.3 29 +22 +22 комфорт 1013.7 959.6 +28.9
03 16.04 Ю 2 10 км ясно +16.7 +4.2 43 +17 +17 1015.3 960.4
06 16.04 0 10 км ясно +11.8 +3.9 58 1015.8 960.0 2
09 16.04 СЗ 2 8000 м дым ясно +8.8 +3.5 69 +7 +7 1016.1 959.7
12 16.04 0 10 км ясно +10.0 +2.6 60 1016.1 959.9 +6.9
15 16.04 0 10 км ясно +21.1 +3.5 31 1014.3 960.3
18 16.04 Ю 3 10 км ясно +28.0 +2.5 19 +26 +34 жарко 1011.1 958.4
21 16.04 Ю 6 10 км 1/0
[Ci fib]
+28.2 +2.7 19 +26 +27 жарко 1010.7 958.1
00 17.04 ЮВ 3 10 км ясно +21.6 +4.4 32 +22 +22 комфорт 1012.6 958.7 +30.1
03 17.04 Ю 2 10 км ясно +17.2 +4.6 43 +18 +18 1014.1 959.4
06 17.04 С 2 10 км ясно +13.9 +4.5 53 +14 +14 1014.1 958.8
09 17.04 З 2 10 км ясно +9.4 +3.4 66 +8 +8 1013.7 957.5
12 17.04 С 2 8000 м мгла 3/0
[Ci fib]
+9.8 +3.1 63 +8 +9 1014.4 958.3 +7.2
15 17.04 штиль 0 8000 м мгла 5/0
[Ci fib]
+20.9 +4.6 34 +21 +32 комфорт 1012.1 958.1
18 17.04 ЮВ 4 10 км ясно +28.0 +3.2 20 +26 +33 жарко 1009.0 956.4
21 17.04 ЮЗ 6 10 км 6/0
[Ci fib]
+27.5 -0.3 16 +25 +26 комфорт 1008.5 955.9
00 18.04 ЮВ 4 10 км 5/0
[Ci fib]
+20.6 +4.8 35 +21 +21 комфорт 1011.4 957.5 +30.0
03 18.04 Ю 2 10 км 3/0
[Ci fib]
+16.1 +3.9 44 +17 +17 1012.7 957.8
06 18.04 ЮВ 3 10 км 3/0
[Cs]
+14.1 +3.9 50 +14 +14 1012.9 957.7
09 18.04 0 10 км ясно +11.0 +3.8 61 1012.6 956.8
12 18.04 штиль 0 10 км 8/0
[Ci sp]
+10.0 +4.4 68 +10 +10 1013.9 957.8 +9.4
15 18.04 Ю 3 10 км 9/0
[Ac trans Cs]
+17.3 +5.0 44 +17 +23 1014.0 959.3
18 18.04 Ю 3 10 км 9/0
[Ac trans Cs]
+21.7 +4.0 31 +22 +28 комфорт 1011.2 957.4
21 18.04 Ю 6 10 км 8/0
[Ac und Cs]
+18.1 +7.3 49 +18 +18 1012.4 957.9
00 19.04 ЮВ 4 10 км 9/0
[Ac As Cs]
+15.2 +9.8 70 +14 +14 1014.6 959.5 +22.5
03 19.04 Ю 3 10 км 9/0
[Ac trans Cs]
+13.9 +10.0 77 +13 +13 1015.0 959.6
06 19.04 Ю 3 10 км 9/0
[Cs]
+12.7 +10.1 84 +11 +11 1014.6 959.0
09 19.04 ЮВ 2 7000 м мгла 9/0
[Cs]
+11.7 +10.0 89 +10 +10 1015.0 959.2
12 19.04 Ю 3 800 м в посл. час туман 9/0
[]
+10.1 +10.1 100 +8 +8 1016.3 960.1 +9.6
15 19.04 Ю 4 5000 м мгла {туман} 10/10 150 м
[St]
+12.0 +10.3 89 +10 +10 1017.1 961.2
18 19.04 Ю 5 8000 м мгла 4/0
[Ac trans Ci fib]
+17.0 +10.4 65 +16 +21 1015.1 960.3
21 19.04 ЮВ 7 10 км 8/0
[Ci fib]
+16.1 +10.3 68 +15 +15 1015.1 960.1
00 20.04 ЮВ 5 10 км 8/0
[Ci]
+12.8 +10.0 83 +11 +11 1017.3 961.6 +17.9
03 20.04 Ю 1 10 км 4/0
[Cc]
+11.7 +9.6 87 +11 +11 1018.1 962.1
06 20.04 штиль 0 8000 м мгла 10/10 400 м
[St]
+11.9 +9.8 87 +11 +11 1017.8 961.9
09 20.04 0 8000 м мгла 10/10 360 м
[St]
+11.5 +9.4 87 1017.8 961.8
12 20.04 0 7000 м мгла 10/10 400 м
[St]
+12.1 +9.7 85 1018.7 962.8 +9.4
15 20.04 СЗ 2 6000 м мгла 10/10 450 м
[Sc]
+13.0 +10.0 82 +12 +12 1019.1 963.3
18 20.04 ЮЗ 2 7000 м мгла 9/9 660 м
[Sc]
+15.5 +9.5 67 +15 +16 1018.2 962.9
21 20.04 Ю 2 10 км ясно +18.1 +9.3 56 +19 +20 1017.0 962.2
00 21.04 Ю 3 10 км ясно +13.4 +7.9 69 +13 +13 1017.9 962.3 +18.4
03 21.04 Ю 2 10 км 5/0
[Ci fib]
+11.2 +7.7 79 +10 +10 1018.4 962.3
06 21.04 ЮВ 2 8000 м мгла ясно +9.0 +7.1 88 +7 +7 1018.5 962.0

 

Местоположение метеостанции Пудауэль (Чили): широта -33.38 долгота -70.78 высота над уровнем моря 474 м.

В архиве по умолчанию представлена погода в Пудауэле за последнюю неделю. Архивные данные за месяц целиком и за предыдущие месяцы, начиная с января 2011 года, Вы можете получить, выбрав интересующий диапазон дат из раскрывающегося списка и нажав кнопку "Ввод!".


*Определитесь, кто Вы:
робот инопланетянин человек

Внимание! Время в таблицах - всемирное. Для получения местного времени необходимо прибавить поправку, которая равна -4 ч.

Смотрите также архив погоды в соседних городах и на ближайших метеорологических станциях:

Погода в Сантьяго (Чили) (11 км)
Погода в Ло-Пинто (Чили) (13 км)
Погода в Ло-Прадо (Чили) (18 км)
Погода в Сантьяго Агуас Андинас (Чили) (29 км)
Погода в Талаганте (Чили) (33 км)
Погода в Куракави (Чили) (36 км)
Погода в Эль Пайко (Чили) (42 км)
Погода в Мария-Пинто (Чили) (45 км)
Погода в Сан-Хосе-де-Майпо (Чили) (48 км)
Погода в Льяй Льяй (Чили) (57 км)

Пояснения к столбцам:

Ветер - указаны скорость ветра в м/с - средняя за 10 мин, порывы в срок и между сроками (в фигурных скобках) и направление, откуда дует ветер: С - северный, СВ - северо-восточный, В - восточный, ЮВ - юго-восточный, Ю - южный, ЮЗ - юго-западный, З - западный, СЗ - северо-западный.
Видимость - горизонтальная дальность видимости в метрах или километрах. При видимости от 1 до 10 км при отсутствии осадков обычно наблюдается дымка, при ухудшении видимости до 1 км и менее - туман. В сухую погоду видимость может ухудшаться дымом, пылью или мглою.
Явления - указаны атмосферные явления, наблюдавшиеся в срок или в последний час перед сроком; фигурными скобками обозначены явления, наблюдавшиеся между сроками (за 1-3 часа до срока); квадратными скобками обозначены град или гололедные отложения с указанием их диаметра в мм.
Облачность - указаны через наклонную черту общая и нижняя облачность в баллах и высота нижней границы облаков в метрах; квадратными скобками обозначены формы облаков: Ci - перистые, Cs - перисто-слоистые, Cc - перисто-кучевые, Ac - высококучевые, As - высокослоистые, Sc - слоисто-кучевые, Ns - слоисто-дождевые, Cu - кучевые, Cb - кучево-дождевые. Подробнее классификацию облаков см. в Атласе облаков (PDF).
T - Температура воздуха - температура, измеренная на высоте 2 м над землей.
Td - Температура точки росы - температура, при понижении до которой содержащийся в воздухе водяной пар достигнет насыщения.
f - Относительная влажность воздуха - влажноcть воздуха, измеренная на высоте 2 м над землей.
Te - Эффективная температура - температура, которую ощущает одетый по сезону человек в тени. Характеристика душности погоды. При расчете учитывается влияние влажности воздуха и скорости ветра на теплоощущения человека.
Tes - Эффективная температура на солнце - температура, которую ощущает человек, с поправкой на солнечный нагрев. Характеристика знойности погоды. Зависит от высоты солнца над горизонтом, облачности и скорости ветра. Ночью, в пасмурную погоду, а также при ветре 12 м/с и более поправка равна нулю.
P - Атмосферное давление - приведенное к уровню моря атмосферное давление.
Po - Атмосферное давление - измеренное на уровне метеостанции атмосферное давление.
Tmin - Минимальная температура - минимум температуры воздуха на высоте 2 м над землей.
Tmax - Максимальная температура - максимум температуры воздуха на высоте 2 м над землей.
R - Количество осадков - Количество выпавших осадков за период времени, мм. При наведении курсора мыши на число - период времени, за который выпало указанное количество осадков.
R24 - Количество осадков - Количество выпавших осадков за 24 часа, мм.
S - Снежный покров - Высота снежного покрова, см. При наведении курсора мыши на число - состояние снежного покрова и степень покрытия местности в баллах.